Regional Weather Roundup
Issued by NWS Grand Forks, ND

Home | Current Version | Previous Version | Text Only | Print | Product List | Glossary Off
Versions: 1 2 3 4 5 6 7 8 9 10 11 12 13 14 15 16 17 18 19 20 21 22 23 24 25 26 27 28 29 30 31 32 33 34 35 36 37 38 39 40 41 42 43 44 45 46 47 48 49 50

000
ASUS43 KFGF 270810
RWRFGF
PRAIRIE TO PINES  WEATHER ROUNDUP
NATIONAL WEATHER SERVICE EASTERN NORTH DAKOTA/GRAND FORKS ND
300 AM CDT WED MAY 27 2015

 **SATELLITE DATA USED TO AUGMENT SKY COVER AT AUTOMATED STATIONS**
 *****  WEATHER ACROSS EASTERN NORTH DAKOTA  *****

CITY           SKY/WX    TMP DP  RH WIND       PRES   REMARKS
GRAND FORKS    PTCLDY    60  47  61 NW8       29.79R
GRAND FRKS AFB PTCLDY    59  47  65 NW9       29.80S
GRAND FRKS NWS   N/A     59 N/A N/A NW5         N/A
DEVILS LAKE    CLEAR     57  48  72 W7        29.85S
FARGO          CLEAR     55  50  83 W5        29.79S
WAHPETON ARPT  SUNNY     54  50  87 W8        29.81S
$$

 ***** WEATHER ACROSS CENTRAL AND WESTERN NORTH DAKOTA  *****

CITY           SKY/WX    TMP DP  RH WIND       PRES   REMARKS
BISMARCK       CLEAR     55  50  83 CALM      29.92S
MINOT          CLEAR     60  45  57 SW10      29.87S
JAMESTOWN      PTCLDY    59  48  67 W12       29.87R
MINOT AFB      CLEAR     54  52  94 W8        29.86S
GARRISON         N/A     56  47  71 S3        29.89S
WILLISTON      PTCLDY    56  45  66 CALM      29.90S
DICKINSON      CLEAR     51  43  74 SW9       29.93S
HETTINGER      CLEAR     49  43  80 CALM      29.97S
$$

 *****  OTHER AIRPORT OBSERVATIONS IN OUR AREA  *****

CITY           SKY/WX    TMP DP  RH WIND       PRES   REMARKS
WALHALLA         N/A     59  46  63 MISG      29.84R
GRAFTON AIRPOR FAIR      63  50  63 NW13      29.82R
VALLEY CITY AR FAIR      57  48  72 NW10      29.84S
CANDO          FAIR      54  45  71 W8        29.86S
CAVALIER APRT  FAIR      63  48  59 N6        29.82R
GWINNER        NOT AVBL
SHEYENNE NWR     N/A     54  49  82 W5        29.95S
ROLLA          FAIR      57  43  58 W9        29.87S
 ***** THE ABOVE OBSERVATIONS ARE NON NWS ARE NOT QUALITY
       CONTROLLED AND MAY MIS-REPORT RAIN FOR SNOW...
$$

  *****  WEATHER ACROSS NORTHERN MINNESOTA  *****

CITY           SKY/WX    TMP DP  RH WIND       PRES   REMARKS
FLAG ISLAND    CLEAR     61  52  72 NW14      29.75S
WARROAD        CLEAR     57  52  82 NW7       29.77S
ROSEAU         CLEAR     57  50  77 NW6       29.78R
HALLOCK        PTCLDY    61  48  63 N9        29.79S
THF RVR FALLS  PTCLDY    57  54  88 CALM      29.78S
BAUDETTE       CLEAR     57  50  77 NW6       29.75S
WASKISH        CLEAR     59  55  88 CALM      29.76S
CROOKSTON      PTCLDY    54  48  82 NW5       29.80R
STEPHEN NDAWN    N/A     61  50  67 NW9         N/A
GREENBUSH NDAW   N/A     55  52  88 NW5         N/A
$$
  *****  WEATHER ACROSS CENTRAL AND WEST MINNESOTA  *****

CITY           SKY/WX    TMP DP  RH WIND       PRES   REMARKS
FOSSTON        CLEAR     52  50  93 S6        29.79S
BEMIDJI        CLEAR     50  48  92 CALM      29.78S
PARK RAPIDS    CLEAR     57  51  80 CALM      29.79S
ELBOW LAKE     FAIR      54  52  92 SW6       29.82S
WADENA         CLEAR     55  52  88 CALM      29.80S
DETROIT LAKES  CLEAR     59  54  82 CALM      29.82R
MOORHEAD       CLEAR     57  52  82 CALM      29.80S
FERGUS FALLS   CLEAR     55  54  94 SW5       29.82S
MORRIS MN      PTCLDY    55  54  94 W6        29.82S
STAPLES        PTCLDY    52  50  93 CALM      29.81R
$$
  *****  WEATHER ELSEWHERE ACROSS MINNESOTA  *****

CITY           SKY/WX    TMP DP  RH WIND       PRES   REMARKS
DULUTH         CLOUDY    52  49  89 W7        29.79R
INTRNTL FALLS  CLEAR     51  49  92 CALM      29.74R
ELY            NOT AVBL
CLOQUET        CLOUDY    52  46  82 CALM      29.79F
WHEATON        PTCLDY    57  48  72 W6        29.84S
BRAINERD       MOCLDY    52  51  97 S3        29.81S
HIBBING        PTCLDY    47  44  90 CALM      29.78S
ALEXANDRIA     PTCLDY    56  54  93 SW9       29.84R
SAINT CLOUD    CLOUDY    54  53  97 CALM      29.82S
MINNEAPOLIS    CLOUDY    57  55  93 CALM      29.84R FOG
$$

  *****  WEATHER ACROSS SOUTH DAKOTA  *****

CITY           SKY/WX    TMP DP  RH WIND       PRES   REMARKS
SIOUX FALLS    CLEAR     52  50  93 W3        29.91R
BROOKINGS      CLEAR     55  52  88 SW5       29.91R
WATERTOWN      CLEAR     59  49  69 W8        29.88S
HURON          PTCLDY    54  50  86 CALM      29.91R
SISSETON         N/A     62  50  64 W7        29.83R
ABERDEEN       CLEAR     53  50  89 W3        29.89S
MITCHELL       CLEAR     58  51  78 SW5       29.92S
PIERRE         CLEAR     56  48  74 W7        29.93F
MOBRIDGE       CLEAR     53  51  93 CALM      29.91R
RAPID CITY     PTCLDY    52  48  86 SE6       29.97F
$$

  *****  SOME WEATHER IN NEARBY STATES *****

CITY           SKY/WX    TMP DP  RH WIND       PRES   REMARKS
GLASGOW MT     MOCLDY    57  49  74 W8        29.89R
GREAT FALLS MT MOCLDY    50  47  89 CALM      29.98S
CHEYENNE WY    CLOUDY    49  45  86 W6        30.08F
SCOTTSBLUFF NE CLOUDY    56  53  90 E7        30.03F
OMAHA NE       CLEAR     56  53  90 CALM      29.94S
DES MOINES IA  CLOUDY    60  57  89 W6        29.90R
DAVENPORT IA   CLEAR     62  59  90 SW12      29.87R
CHICAGO IL     PTCLDY    65  61  87 SW8       29.83S
EAU CLAIRE WI  LGT RAIN  56  55  97 W7        29.79S
LA CROSSE WI   LGT RAIN  61  57  87 NW9       29.81R
$$

  *****  SOME NATIONAL WEATHER *****

CITY           SKY/WX    TMP DP  RH WIND       PRES   REMARKS
LA GUARDIA NY  PTCLDY    69  60  73 S7        30.14F
RALEIGH NC     MOCLDY    72  67  84 S6        30.20S
ATLANTA GA     MOCLDY    67  64  90 CALM      30.20S
NEW ORLEANS LA PTCLDY    76  72  87 CALM      30.09R
OKLAHOMA CITY  MOCLDY    65  62  90 SE7       30.00R
ALBUQUERQUE NM MOCLDY    63  44  50 E8        30.10F
SALT LAKE CITY MOCLDY    55  48  77 SE10      30.04F
LOS ANGELES CA MOCLDY    59  53  80 W5        30.00F
BOISE ID       PTCLDY    61  45  55 N5        29.93S
SEATTLE WA     PTCLDY    58  51  78 CALM      30.05R
$$

*** WEATHER ACROSS MANITOBA...SASKATCHEWAN AND ONTARIO ***
                ***ONTARIO***

CITY           SKY/WX    TMP DP  RH WIND       PRES   REMARKS
GERALDTON      PTCLDY    54  50  87 W3        29.68F
THUNDER BAY    MOCLDY    50  50 100 W3        29.70F
SIOUX LOOKOUT  PTCLDY    50  48  93 VRB2      29.71S
TORONTO        LGT RAIN  64  59  82 S6        29.92S
BIG TROUT LK   CLOUDY    32  30  93 NE9       29.90R WCI  24
PICKLE LAKE    NOT AVBL
DRYDEN         CLEAR     55  48  76 SW7       29.72S
KENORA         PTCLDY    59  50  72 NW9       29.76S
$$
                *** MANITOBA***

CITY           SKY/WX    TMP DP  RH WIND       PRES   REMARKS
BRANDON        PTCLDY    50  43  76 NE17      29.91R
DAUPHIN        CLOUDY    48  43  81 N10       29.99R
ISLAND LAKE    MOCLDY    37  32  81 N6        29.99R
PILOT MOUND      N/A     55  48  76 N12         N/A
THE PAS        CLEAR     36  34  93 CALM      30.04S
THOMPSON       CLEAR     25  21  86 CALM      30.05R
WINNIPEG       PTCLDY    50  41  71 NW10      29.86R
LYNN LAKE      PTCLDY    34  25  69 NW5       30.05R
CHURCHILL      MOCLDY    32  27  80 W8        29.99R WCI  25
GILLAM         CLEAR     25  21  86 S5        30.03S WCI  19
$$
                ***SASKATCHEWAN***

CITY           SKY/WX    TMP DP  RH WIND       PRES   REMARKS
ESTEVAN        PTCLDY    55  46  71 SW9       29.89R
KINDERSLEY     LGT RAIN  55  48  76 NE14G21   29.97S
LLOYDMINSTER   CLEAR     46  36  66 E3        30.01S
PRINCE ALBERT  CLEAR     39  37  93 NE3       30.04S
REGINA         NOT AVBL
YORKTON        PTCLDY    46  43  87 NE12      29.97R
N. BATTLEFORD  CLEAR     48  39  71 SE8       30.03R
LA RONGE       PTCLDY    32  30  93 CALM      30.05R
SASKATOON      CLEAR     50  43  76 NE12      30.01R
SWIFT CURRENT  PTCLDY    59  46  63 E10       29.92R
$$
NOTE: THESE ARE AUTOMATED STATIONS WITH LIMITED QUALITY CONTROL
      "FAIR" INDICATES FEW OR NO CLOUDS BELOW 12,000 FEET WITH NO
      SIGNIFICANT WEATHER AND/OR OBSTRUCTIONS TO VISIBILITY.
      SKY/WX - SKY CONDITION AND SIGNIFICANT WEATHER.
      TMP - AIR TEMPERATURE.    DP   - DEWPOINT TEMPERATURE.
      RH  - RELATIVE HUMIDITY.  PRES - PRESSURE.
      HX  - HEAT INDEX.         WCI  - WIND CHILL INDEX.
$


USA.gov is the U.S. government's official web portal to all federal, state and local government web resources and services.